QPF
0.00 0.00 0.00 0.00 0.00 0.00 0.00 0.00 0.00 0.00 0.00 0.00 0.00 0.00 0.00 0.00 0.00 0.00 0.00 0.00 0.00 0.00 0.00 0.00 0.00 0.00 0.00 0.00 0.00 0.00 0.00 0.00 0.00 0.00 0.00 0.00 0.00 0.00 0.00 0.00 0.00 0.00 0.00 0.00 0.00
0.00 0.00 0.00 0.00 0.00 0.00 0.00 0.00 0.00 0.00 0.00 0.00 0.00 0.00 0.00 0.00 0.00 0.00 0.00 0.00 0.00 0.00 0.00 0.00 0.00 0.00 0.00 0.00 0.00 0.00 0.00 0.00 0.00 0.00 0.00 0.00 0.00 0.00 0.00 0.00 0.00 0.00 0.00 0.00 0.00
0.00 0.00 0.00 0.00 0.00 0.00 0.00 0.00 0.00 0.00 0.00 0.00 0.00 0.00 0.00 0.00 0.00 0.00 0.00 0.00 0.00 0.00 0.00 0.00 0.00 0.00 0.00 0.00 0.00 0.00 0.00 0.00 0.00 0.00 0.00 0.00 0.00 0.00 0.00 0.00 0.00 0.00 0.00 0.00 0.00
0.00 0.00 0.00 0.00 0.00 0.00 0.00 0.00 0.00 0.00 0.00 0.00 0.00 0.00 0.00 0.00 0.00 0.00 0.00 0.00 0.00 0.00 0.00 0.00 0.00 0.00 0.00 0.00 0.00 0.00 0.00 0.00 0.00 0.00 0.00 0.00 0.00 0.00 0.00 0.00 0.00 0.00 0.00 0.00 0.00
0.00 0.00 0.00 0.00 0.00 0.00 0.00 0.00 0.00 0.00 0.00 0.00 0.00 0.00 0.00 0.00 0.00 0.00 0.00 0.00 0.00 0.00 0.00 0.00 0.00 0.00 0.00 0.00 0.00 0.00 0.00 0.00 0.00 0.00 0.00 0.00 0.00 0.00 0.00 0.00 0.00 0.00 0.00 0.00 0.00
0.00 0.00 0.00 0.00 0.00 0.00 0.00 0.00 0.00 0.00 0.00 0.00 0.00 0.00 0.00 0.00 0.00 0.00 0.00 0.00 0.00 0.00 0.00 0.00 0.00 0.00 0.00 0.00 0.00 0.00 0.00 0.00 0.00 0.00 0.00 0.00 0.00 0.00 0.00 0.00 0.00 0.00 0.00 0.00 0.00
0.00 0.00 0.00 0.00 0.00 0.00 0.00 0.00 0.00 0.00 0.00 0.00 0.00 0.00 0.00 0.00 0.00 0.00 0.00 0.00 0.00 0.00 0.00 0.00 0.00 0.00 0.00 0.00 0.00 0.00 0.00 0.00 0.00 0.00 0.00 0.00 0.00 0.00 0.00 0.00 0.00 0.00 0.00 0.00 0.00
0.00 0.00 0.00 0.00 0.00 0.00 0.00 0.00 0.00 0.00 0.00 0.00 0.00 0.00 0.00 0.00 0.00 0.00 0.00 0.00 0.00 0.00 0.00 0.00 0.00 0.00 0.00 0.00 0.00 0.00 0.00 0.00 0.00 0.00 0.00 0.00 0.00 0.00 0.00 0.00 0.00 0.00 0.00 0.00 0.00
0.00 0.00 0.00 0.00 0.00 0.00 0.00 0.00 0.00 0.00 0.00 0.00 0.00 0.00 0.00 0.00 0.00 0.00 0.00 0.00 0.00 0.00 0.00 0.00 0.00 0.00 0.00 0.00 0.00 0.00 0.00 0.00 0.00 0.00 0.00 0.00 0.00 0.00 0.00 0.00 0.00 0.00 0.00 0.00 0.00
0.00 0.00 0.00 0.00 0.00 0.00 0.00 0.00 0.00 0.00 0.00 0.00 0.00 0.00 0.00 0.00 0.00 0.00 0.00 0.00 0.00 0.00 0.00 0.00 0.00 0.00 0.00 0.00 0.00 0.00 0.00 0.00 0.00 0.00 0.00 0.00 0.00 0.00 0.00 0.00 0.00 0.00 0.00 0.00 0.00
0.00 0.00 0.00 0.00 0.00 0.00 0.00 0.00 0.00 0.00 0.00 0.00 0.00 0.00 0.00 0.00 0.00 0.00 0.00 0.00 0.00 0.00 0.00 0.00 0.00 0.00 0.00 0.00 0.00 0.00 0.00 0.00 0.00 0.00 0.00 0.00 0.00 0.00 0.00 0.00 0.00 0.00 0.00 0.00 0.00
0.00 0.00 0.00 0.00 0.00 0.00 0.00 0.00 0.00 0.00 0.00 0.00 0.00 0.00 0.00 0.00 0.00 0.00 0.00 0.00 0.00 0.00 0.00 0.00 0.00 0.00 0.00 0.00 0.00 0.00 0.00 0.00 0.00 0.00 0.00 0.00 0.00 0.00 0.00 0.00 0.00 0.00 0.00 0.00 0.00
0.00 0.00 0.00 0.00 0.00 0.00 0.00 0.00 0.00 0.00 0.00 0.00 0.00 0.00 0.00 0.00 0.00 0.00 0.00 0.00 0.00 0.00 0.00 0.00 0.00 0.00 0.00 0.00 0.00 0.00 0.00 0.00 0.00 0.00 0.00 0.00 0.00 0.00 0.00 0.01 0.01 0.00 0.00 0.00 0.02
0.00 0.00 0.00 0.00 0.00 0.00 0.00 0.00 0.00 0.00 0.00 0.00 0.00 0.00 0.00 0.00 0.00 0.00 0.00 0.00 0.00 0.00 0.00 0.00 0.00 0.00 0.00 0.00 0.00 0.00 0.00 0.00 0.00 0.01 0.01 0.00 0.02 0.00 0.01 0.02 0.02 0.04 0.03 0.02 0.07
0.00 0.00 0.00 0.00 0.00 0.00 0.00 0.00 0.00 0.00 0.00 0.00 0.00 0.00 0.00 0.00 0.00 0.00 0.00 0.00 0.00 0.00 0.00 0.00 0.00 0.00 0.00 0.00 0.00 0.00 0.00 0.00 0.00 0.01 0.01 0.01 0.02 0.01 0.00 0.01 0.01 0.02 0.05 0.04 0.03
0.00 0.00 0.00 0.00 0.00 0.00 0.00 0.00 0.00 0.00 0.00 0.00 0.00 0.00 0.00 0.00 0.00 0.00 0.00 0.00 0.00 0.00 0.00 0.00 0.00 0.00 0.00 0.00 0.00 0.00 0.00 0.00 0.00 0.00 0.03 0.00 0.02 0.01 0.00 0.00 0.00 0.00 0.01 0.00 0.01
0.00 0.00 0.00 0.00 0.00 0.00 0.00 0.00 0.00 0.00 0.00 0.00 0.00 0.00 0.00 0.00 0.00 0.00 0.00 0.00 0.00 0.00 0.00 0.00 0.00 0.00 0.00 0.00 0.00 0.00 0.00 0.01 0.02 0.03 0.03 0.00 0.00 0.00 0.00 0.00 0.00 0.00 0.01 0.00 0.00
0.00 0.00 0.00 0.00 0.00 0.00 0.00 0.00 0.00 0.00 0.00 0.00 0.00 0.00 0.00 0.00 0.00 0.00 0.00 0.00 0.00 0.00 0.00 0.00 0.00 0.00 0.00 0.00 0.00 0.00 0.02 0.02 0.01 0.01 0.01 0.00 0.00 0.00 0.00 0.00 0.00 0.00 0.00 0.00 0.00
0.00 0.00 0.00 0.00 0.00 0.00 0.00 0.00 0.00 0.00 0.00 0.00 0.00 0.00 0.00 0.00 0.00 0.00 0.00 0.00 0.00 0.00 0.00 0.00 0.00 0.00 0.00 0.00 0.00 0.00 0.00 0.00 0.01 0.00 0.03 0.00 0.00 0.00 0.00 0.00 0.00 0.00 0.00 0.00 0.00
0.00 0.00 0.00 0.00 0.00 0.00 0.00 0.00 0.00 0.00 0.00 0.00 0.00 0.00 0.00 0.00 0.00 0.00 0.00 0.00 0.00 0.00 0.00 0.00 0.00 0.00 0.00 0.00 0.00 0.00 0.00 0.00 0.01 0.02 0.03 0.02 0.00 0.00 0.00 0.00 0.00 0.00 0.00 0.00 0.00
0.00 0.00 0.00 0.00 0.00 0.00 0.00 0.00 0.00 0.00 0.00 0.00 0.00 0.00 0.00 0.00 0.00 0.00 0.00 0.00 0.00 0.00 0.00 0.00 0.00 0.00 0.00 0.00 0.00 0.00 0.00 0.00 0.00 0.01 0.02 0.02 0.00 0.00 0.00 0.00 0.00 0.00 0.00 0.00 0.00
0.00 0.00 0.00 0.00 0.00 0.00 0.00 0.00 0.00 0.00 0.00 0.00 0.00 0.00 0.00 0.00 0.00 0.00 0.00 0.00 0.00 0.00 0.00 0.00 0.00 0.00 0.00 0.00 0.00 0.00 0.00 0.00 0.00 0.00 0.00 0.00 0.00 0.00 0.00 0.00 0.00 0.00 0.00 0.00 0.00
0.00 0.00 0.00 0.00 0.00 0.00 0.00 0.00 0.00 0.00 0.00 0.00 0.00 0.00 0.00 0.00 0.00 0.00 0.00 0.00 0.00 0.00 0.00 0.00 0.00 0.00 0.00 0.00 0.00 0.00 0.00 0.00 0.00 0.00 0.00 0.00 0.00 0.00 0.00 0.00 0.00 0.00 0.00 0.00 0.00
0.00 0.00 0.00 0.00 0.00 0.00 0.00 0.00 0.00 0.00 0.00 0.00 0.00 0.00 0.00 0.00 0.00 0.00 0.00 0.00 0.00 0.00 0.00 0.00 0.00 0.00 0.00 0.00 0.00 0.00 0.00 0.00 0.00 0.00 0.00 0.00 0.00 0.00 0.00 0.00 0.00 0.00 0.00 0.00 0.00
0.00 0.00 0.00 0.00 0.00 0.00 0.00 0.00 0.00 0.00 0.00 0.00 0.00 0.00 0.00 0.00 0.00 0.00 0.00 0.00 0.00 0.00 0.00 0.00 0.00 0.00 0.00 0.00 0.00 0.00 0.00 0.00 0.00 0.00 0.00 0.00 0.00 0.00 0.00 0.00 0.00 0.00 0.00 0.00 0.00
0.00 0.00 0.00 0.00 0.00 0.00 0.00 0.00 0.00 0.00 0.00 0.00 0.00 0.00 0.00 0.00 0.00 0.00 0.00 0.00 0.00 0.00 0.00 0.00 0.00 0.00 0.00 0.00 0.00 0.00 0.00 0.00 0.00 0.00 0.00 0.00 0.00 0.00 0.00 0.00 0.00 0.00 0.00 0.00 0.00
0.00 0.00 0.00 0.00 0.00 0.00 0.00 0.00 0.00 0.00 0.00 0.00 0.00 0.00 0.00 0.00 0.00 0.00 0.00 0.00 0.00 0.00 0.00 0.00 0.00 0.00 0.00 0.00 0.00 0.00 0.00 0.00 0.00 0.00 0.00 0.00 0.00 0.00 0.00 0.00 0.00 0.00 0.00 0.00 0.00
MSLP
1022.99 1022.63 1022.24 1021.83 1021.43 1021.06 1020.60 1020.12 1019.66 1019.21 1018.81 1018.56 1018.41 1018.21 1017.78 1017.35 1016.96 1016.25 1016.45 1017.49 1017.17 1016.80 1015.75 1014.84 1014.06 1013.68 1013.32 1012.85 1012.79 1012.34 1011.06 1008.86 1008.24 1007.90 1007.83 1008.62 1009.65 1009.25 1009.57 1009.33 1008.52 1008.20 1008.46 1008.84 1009.07
1023.20 1022.80 1022.40 1021.96 1021.52 1021.14 1020.73 1020.25 1019.76 1019.27 1018.87 1018.63 1018.49 1018.34 1018.00 1017.53 1016.24 1016.87 1018.19 1017.82 1017.40 1016.92 1015.84 1015.18 1014.54 1014.06 1013.09 1013.26 1013.06 1012.61 1011.05 1009.75 1010.06 1010.21 1010.07 1010.12 1010.92 1010.95 1010.70 1009.71 1008.80 1008.59 1008.71 1009.36 1009.68
1023.35 1022.94 1022.52 1022.04 1021.56 1021.15 1020.72 1020.22 1019.75 1019.35 1018.90 1018.71 1018.54 1018.42 1018.29 1017.94 1016.57 1017.62 1018.34 1017.97 1017.61 1017.02 1016.24 1015.68 1015.15 1014.67 1014.01 1014.02 1013.56 1012.85 1012.02 1011.27 1011.33 1011.68 1011.91 1012.06 1012.02 1012.05 1011.26 1010.31 1009.90 1009.35 1009.05 1009.82 1010.28
1023.47 1023.05 1022.61 1022.09 1021.60 1021.17 1020.75 1020.25 1019.74 1019.45 1019.14 1018.83 1018.66 1018.45 1018.20 1017.38 1017.33 1018.23 1018.52 1018.13 1017.58 1017.04 1016.31 1015.78 1015.37 1014.86 1014.61 1014.29 1014.38 1014.21 1013.08 1012.97 1012.86 1012.96 1013.12 1013.02 1012.85 1012.37 1011.91 1010.96 1010.64 1009.93 1009.99 1010.17 1010.42
1023.64 1023.24 1022.81 1022.35 1021.79 1021.22 1020.78 1020.27 1019.83 1019.51 1019.27 1019.04 1018.72 1018.49 1018.08 1017.17 1018.42 1018.55 1018.55 1017.98 1017.27 1016.96 1016.50 1016.22 1015.79 1015.56 1015.14 1015.00 1014.89 1014.33 1013.82 1013.75 1013.66 1013.67 1013.56 1013.41 1012.86 1012.35 1011.70 1011.59 1011.17 1010.63 1010.16 1010.15 1010.26
1023.93 1023.47 1022.98 1022.46 1021.83 1021.20 1020.69 1020.26 1019.94 1019.66 1019.44 1019.14 1018.70 1018.34 1017.48 1017.95 1018.90 1018.58 1018.36 1017.73 1017.26 1017.13 1016.62 1016.53 1016.15 1016.15 1015.97 1015.67 1015.62 1014.87 1014.81 1014.39 1014.03 1013.66 1013.53 1013.29 1012.49 1012.34 1011.23 1011.01 1010.63 1010.54 1010.17 1009.84 1009.79
1024.18 1023.70 1023.17 1022.56 1021.85 1021.27 1020.74 1020.23 1019.97 1019.68 1019.47 1019.21 1018.87 1018.23 1018.03 1019.33 1018.91 1018.63 1018.32 1017.74 1017.50 1017.30 1016.94 1016.64 1016.71 1016.69 1016.11 1015.71 1015.62 1015.61 1015.08 1014.22 1013.36 1013.07 1012.87 1013.24 1012.09 1011.24 1010.45 1010.23 1009.96 1009.87 1009.67 1009.59 1009.23
1024.31 1023.85 1023.29 1022.68 1021.93 1021.32 1020.82 1020.37 1020.08 1019.81 1019.62 1019.36 1018.94 1017.86 1018.46 1019.42 1019.16 1018.85 1018.14 1017.71 1017.53 1017.38 1017.32 1017.16 1017.09 1016.83 1016.58 1016.16 1015.80 1015.16 1014.61 1013.76 1012.91 1012.93 1012.82 1013.21 1010.78 1010.50 1010.11 1009.91 1009.69 1009.59 1009.28 1009.07 1008.85
1024.35 1023.92 1023.44 1022.85 1022.09 1021.38 1020.84 1020.49 1020.22 1019.94 1019.71 1019.21 1018.65 1017.85 1018.68 1018.99 1019.11 1019.19 1018.58 1018.05 1017.55 1017.50 1017.46 1017.37 1017.08 1016.63 1016.52 1015.95 1015.28 1014.37 1013.91 1013.49 1012.74 1012.74 1012.71 1012.67 1010.75 1010.38 1010.44 1010.20 1009.71 1009.47 1009.10 1008.82 1008.48
1024.42 1023.97 1023.57 1023.04 1022.51 1021.56 1020.79 1020.53 1020.17 1020.02 1019.51 1019.11 1018.66 1018.73 1019.19 1019.66 1019.59 1019.19 1018.65 1018.07 1017.72 1017.28 1017.17 1016.92 1016.73 1016.23 1015.83 1015.43 1015.37 1015.23 1014.94 1014.22 1013.34 1012.80 1012.28 1011.99 1010.58 1009.80 1009.60 1009.45 1009.08 1008.77 1008.73 1008.67 1008.35
1024.48 1024.04 1023.66 1023.21 1022.82 1021.82 1020.26 1020.10 1020.18 1019.74 1020.32 1020.57 1020.71 1020.31 1020.40 1020.55 1019.86 1019.03 1018.89 1017.76 1017.46 1016.92 1016.56 1016.56 1016.28 1015.74 1016.05 1016.26 1016.33 1016.32 1015.90 1014.93 1013.80 1012.24 1011.79 1011.10 1010.11 1009.44 1009.26 1009.01 1008.51 1008.29 1008.24 1008.29 1008.11
1024.54 1024.01 1023.62 1023.31 1023.03 1022.18 1020.84 1021.04 1022.84 1023.31 1022.12 1021.51 1021.33 1020.98 1021.35 1021.21 1020.06 1019.62 1019.44 1018.39 1017.81 1016.95 1016.65 1016.37 1015.91 1016.40 1016.72 1016.42 1016.16 1015.98 1015.46 1014.27 1012.62 1012.20 1012.27 1011.42 1010.09 1009.34 1009.13 1008.75 1008.31 1008.12 1008.03 1008.11 1007.95
1024.81 1024.07 1023.61 1023.38 1022.98 1022.64 1022.61 1023.45 1023.68 1023.43 1022.05 1021.84 1021.66 1021.35 1021.45 1021.44 1020.81 1020.53 1020.69 1019.71 1018.74 1017.66 1017.34 1016.83 1016.50 1016.91 1016.73 1016.29 1015.83 1015.61 1014.73 1013.61 1013.23 1012.80 1012.32 1011.27 1010.05 1009.69 1010.17 1009.74 1008.94 1008.23 1008.16 1008.23 1007.89
1024.92 1024.26 1023.59 1023.09 1023.39 1023.05 1023.27 1024.02 1023.84 1023.55 1022.18 1022.16 1021.51 1021.93 1021.51 1021.16 1021.02 1021.25 1021.27 1021.32 1019.65 1019.01 1018.19 1017.32 1017.34 1017.11 1016.88 1016.53 1016.33 1015.22 1014.08 1013.88 1013.59 1013.59 1012.51 1012.59 1011.14 1011.15 1011.14 1011.72 1011.38 1010.95 1008.94 1008.29 1008.41
1024.77 1024.40 1024.04 1023.35 1023.22 1023.20 1024.31 1024.03 1023.85 1023.40 1022.68 1022.49 1022.18 1022.26 1021.81 1021.69 1022.16 1021.12 1021.71 1021.27 1020.90 1020.42 1019.72 1017.83 1017.68 1017.51 1017.40 1017.01 1016.75 1015.35 1014.41 1013.70 1013.17 1013.23 1013.14 1012.43 1012.50 1012.42 1012.73 1012.86 1013.37 1012.68 1011.64 1011.14 1010.53
1024.70 1024.44 1024.06 1023.72 1023.28 1024.45 1024.34 1024.08 1023.68 1022.99 1022.69 1022.57 1022.64 1022.48 1021.99 1022.03 1022.35 1022.19 1022.31 1022.35 1021.75 1020.96 1019.79 1018.78 1018.22 1018.23 1018.16 1017.06 1015.67 1015.25 1013.99 1012.11 1011.86 1012.72 1012.41 1012.90 1013.18 1013.78 1014.95 1015.70 1015.11 1014.36 1013.50 1013.17 1012.65
1024.65 1024.46 1023.97 1024.09 1024.17 1024.39 1024.38 1023.54 1022.94 1022.67 1023.06 1023.25 1023.34 1023.16 1022.91 1022.96 1022.99 1023.02 1023.38 1023.94 1023.88 1022.64 1020.98 1019.38 1018.00 1017.68 1017.82 1016.69 1015.62 1015.76 1014.37 1012.64 1012.12 1012.00 1012.27 1012.77 1013.35 1016.03 1016.82 1017.23 1016.80 1016.40 1015.74 1014.81 1014.27
1024.73 1024.64 1024.56 1024.50 1024.32 1024.51 1024.00 1022.74 1022.88 1023.95 1023.89 1024.24 1024.13 1023.70 1023.41 1024.09 1023.85 1023.94 1023.90 1024.30 1025.03 1024.95 1023.38 1021.49 1018.88 1018.27 1018.07 1017.78 1017.44 1016.56 1015.98 1015.48 1014.30 1012.77 1012.13 1012.66 1014.36 1016.49 1017.75 1018.43 1018.03 1017.48 1017.24 1016.32 1016.01
1024.56 1023.85 1023.89 1024.30 1024.45 1024.37 1023.33 1023.37 1024.19 1024.82 1025.33 1025.13 1024.40 1024.13 1023.91 1024.58 1025.16 1024.95 1025.41 1025.55 1025.90 1026.36 1025.83 1023.73 1020.66 1019.06 1018.62 1018.11 1017.97 1017.08 1016.44 1016.91 1015.69 1013.53 1013.10 1013.15 1014.71 1016.64 1017.76 1018.70 1019.36 1019.01 1017.92 1018.11 1017.75
1024.35 1023.86 1023.58 1024.19 1024.35 1023.85 1023.22 1024.38 1024.87 1025.62 1026.12 1026.14 1025.60 1025.55 1025.16 1025.53 1025.94 1026.03 1026.09 1026.46 1026.50 1026.90 1027.03 1025.78 1023.52 1019.95 1018.99 1018.17 1018.20 1017.74 1017.73 1016.88 1016.22 1014.99 1013.78 1013.85 1015.06 1017.78 1018.35 1019.09 1019.72 1020.01 1019.77 1019.48 1019.23
1024.69 1023.70 1023.88 1024.08 1024.14 1023.44 1024.42 1025.01 1025.43 1026.25 1026.74 1026.96 1026.56 1026.38 1026.29 1026.73 1027.36 1027.20 1026.98 1026.70 1026.88 1026.91 1027.14 1026.52 1025.36 1021.16 1019.28 1019.16 1019.07 1018.61 1018.67 1018.58 1018.09 1017.14 1016.05 1015.40 1016.65 1019.27 1019.99 1020.73 1021.17 1021.45 1021.50 1020.95 1020.92
1024.90 1024.02 1024.03 1023.83 1023.94 1024.60 1025.08 1025.88 1026.29 1026.33 1026.91 1027.12 1027.18 1026.98 1026.97 1027.14 1027.53 1027.52 1027.25 1027.15 1027.22 1027.24 1027.14 1026.82 1026.04 1023.35 1020.44 1019.66 1020.06 1020.08 1020.00 1020.02 1019.35 1018.31 1017.38 1017.11 1017.84 1018.77 1020.51 1020.88 1021.93 1022.22 1022.35 1022.24 1021.85
1024.60 1024.13 1023.96 1023.92 1024.49 1025.08 1025.80 1026.16 1026.32 1026.46 1026.79 1027.18 1027.20 1027.29 1027.41 1027.51 1027.67 1027.21 1026.91 1027.02 1027.40 1027.44 1027.54 1027.39 1026.22 1024.18 1020.95 1020.78 1020.31 1020.75 1020.78 1021.00 1020.45 1019.90 1018.54 1018.04 1018.18 1018.98 1019.86 1020.61 1021.60 1022.33 1022.78 1022.93 1022.86
1024.68 1024.28 1024.25 1024.88 1025.61 1025.21 1025.71 1026.02 1026.27 1026.68 1026.88 1027.26 1027.37 1027.49 1027.57 1027.35 1027.45 1027.36 1026.89 1026.86 1027.22 1027.74 1028.04 1027.98 1026.85 1025.84 1023.97 1022.69 1022.51 1022.04 1021.88 1021.89 1021.46 1020.22 1019.72 1019.41 1019.16 1019.12 1020.66 1021.82 1022.07 1022.76 1023.29 1023.34 1023.60
1024.88 1024.61 1024.83 1025.14 1025.58 1025.68 1026.37 1026.33 1026.11 1026.46 1027.03 1027.25 1027.33 1027.36 1027.59 1027.69 1027.55 1027.42 1027.17 1027.14 1027.27 1028.08 1028.27 1028.31 1027.23 1025.80 1024.69 1023.58 1023.03 1022.72 1022.57 1022.30 1022.03 1021.10 1020.62 1020.16 1020.02 1020.18 1020.86 1022.12 1022.82 1023.06 1023.37 1023.51 1023.62
1025.02 1025.10 1025.59 1025.63 1026.00 1026.08 1026.47 1026.07 1025.78 1026.23 1026.80 1027.01 1027.36 1026.98 1027.24 1027.59 1027.22 1027.25 1027.37 1027.38 1027.69 1028.18 1028.67 1028.85 1027.31 1026.15 1024.26 1023.27 1023.16 1023.05 1022.81 1022.56 1022.26 1021.62 1020.79 1020.37 1020.12 1020.64 1021.04 1021.66 1023.39 1023.58 1023.65 1023.90 1024.22
1025.55 1025.49 1025.07 1025.77 1026.10 1026.20 1025.47 1025.20 1025.31 1025.97 1026.34 1026.78 1026.97 1027.11 1027.10 1027.08 1027.08 1027.10 1027.37 1027.60 1027.92 1028.61 1028.65 1028.96 1028.20 1026.74 1024.31 1023.51 1023.48 1023.18 1022.97 1022.99 1022.61 1022.15 1021.52 1020.69 1020.74 1020.78 1021.03 1021.59 1022.67 1023.90 1024.19 1024.06 1024.27
Thickness
5627 5627 5627 5626 5627 5627 5627 5628 5629 5630 5629 5628 5626 5624 5624 5624 5625 5628 5622 5613 5613 5614 5620 5625 5629 5629 5630 5629 5628 5630 5623 5638 5644 5645 5646 5647 5633 5649 5648 5645 5656 5662 5661 5665 5671
5624 5624 5623 5623 5624 5624 5624 5625 5625 5625 5625 5623 5620 5618 5617 5618 5626 5616 5604 5604 5605 5606 5611 5611 5612 5615 5620 5614 5613 5610 5618 5627 5622 5619 5617 5622 5614 5618 5620 5629 5639 5645 5653 5654 5658
5621 5621 5621 5621 5622 5622 5622 5623 5623 5622 5621 5619 5616 5612 5609 5608 5616 5603 5595 5595 5595 5597 5600 5601 5601 5600 5599 5596 5597 5600 5597 5606 5601 5598 5594 5590 5591 5596 5601 5609 5617 5622 5632 5636 5640
5619 5619 5620 5620 5621 5620 5620 5620 5620 5618 5616 5614 5611 5608 5605 5608 5603 5593 5587 5587 5588 5588 5591 5590 5588 5586 5582 5581 5579 5570 5582 5577 5574 5571 5567 5566 5572 5574 5579 5592 5600 5609 5615 5620 5621
5616 5616 5616 5616 5617 5617 5617 5616 5615 5613 5610 5607 5605 5602 5603 5602 5586 5583 5580 5581 5581 5580 5578 5574 5572 5570 5567 5565 5561 5559 5561 5556 5553 5550 5547 5548 5554 5558 5565 5571 5577 5587 5596 5603 5609
5611 5611 5611 5612 5613 5614 5613 5612 5609 5607 5604 5601 5600 5598 5603 5587 5578 5576 5574 5574 5572 5568 5567 5563 5559 5555 5549 5546 5539 5543 5537 5535 5532 5532 5528 5527 5540 5538 5556 5551 5559 5563 5575 5584 5592
5605 5606 5606 5607 5609 5609 5609 5608 5605 5601 5598 5595 5593 5592 5587 5570 5570 5567 5566 5567 5563 5559 5555 5553 5547 5539 5540 5534 5531 5521 5518 5522 5524 5521 5515 5507 5522 5524 5536 5535 5540 5545 5554 5563 5576
5600 5601 5602 5602 5604 5604 5603 5601 5598 5595 5591 5588 5586 5589 5573 5564 5561 5559 5558 5557 5553 5550 5544 5539 5534 5528 5522 5521 5514 5511 5513 5509 5511 5503 5499 5487 5514 5517 5517 5512 5515 5521 5532 5542 5556
5597 5596 5596 5597 5598 5599 5599 5595 5592 5589 5585 5583 5582 5582 5566 5561 5554 5548 5548 5546 5547 5541 5535 5529 5523 5518 5511 5509 5509 5510 5506 5500 5499 5492 5484 5478 5495 5505 5497 5494 5497 5503 5511 5518 5531
5591 5591 5591 5591 5591 5593 5594 5591 5587 5582 5580 5577 5576 5569 5560 5547 5545 5543 5542 5540 5536 5534 5528 5521 5514 5510 5508 5504 5492 5483 5476 5477 5475 5482 5480 5477 5486 5498 5495 5491 5492 5495 5492 5495 5507
5587 5586 5585 5585 5583 5586 5592 5591 5589 5584 5568 5558 5550 5548 5544 5539 5540 5542 5535 5538 5533 5531 5521 5514 5507 5504 5492 5482 5473 5458 5446 5445 5465 5483 5481 5483 5490 5492 5490 5486 5486 5483 5480 5481 5491
5582 5582 5581 5579 5577 5576 5580 5576 5553 5546 5555 5548 5544 5543 5533 5529 5533 5530 5525 5526 5522 5521 5515 5507 5503 5488 5475 5471 5467 5461 5451 5460 5485 5484 5475 5477 5485 5489 5485 5480 5476 5469 5467 5470 5482
5575 5577 5576 5573 5571 5567 5561 5549 5542 5539 5558 5544 5539 5536 5529 5525 5522 5517 5506 5505 5506 5509 5500 5493 5490 5473 5468 5466 5465 5461 5463 5476 5473 5470 5474 5476 5485 5476 5470 5464 5465 5464 5463 5466 5478
5568 5570 5572 5571 5565 5560 5551 5539 5536 5534 5557 5542 5538 5528 5524 5521 5515 5505 5494 5483 5497 5489 5483 5487 5474 5465 5458 5458 5455 5446 5477 5471 5460 5446 5456 5447 5472 5460 5458 5428 5431 5424 5456 5470 5476
5564 5563 5561 5563 5559 5555 5538 5534 5531 5532 5564 5537 5526 5519 5518 5511 5496 5501 5488 5480 5470 5463 5465 5479 5461 5449 5438 5440 5444 5452 5467 5465 5461 5449 5447 5457 5453 5446 5442 5425 5408 5412 5426 5433 5448
5558 5557 5556 5553 5550 5536 5531 5529 5530 5547 5546 5532 5517 5510 5512 5507 5494 5487 5475 5467 5462 5454 5467 5464 5458 5440 5421 5438 5461 5463 5465 5487 5484 5458 5462 5447 5453 5436 5414 5401 5400 5402 5412 5421 5436
5553 5551 5549 5542 5541 5531 5527 5532 5545 5548 5533 5521 5503 5502 5500 5490 5482 5476 5459 5437 5430 5435 5439 5453 5462 5454 5445 5449 5460 5448 5464 5485 5492 5487 5475 5462 5466 5413 5400 5392 5397 5399 5409 5423 5433
5545 5543 5538 5534 5531 5526 5527 5548 5549 5520 5511 5503 5494 5496 5493 5474 5476 5466 5464 5450 5424 5411 5414 5419 5445 5447 5443 5437 5425 5432 5440 5443 5448 5477 5486 5474 5443 5423 5400 5392 5398 5406 5407 5423 5427
5540 5539 5537 5528 5525 5522 5539 5530 5526 5497 5490 5488 5496 5496 5498 5476 5456 5455 5433 5431 5418 5396 5388 5397 5433 5442 5439 5440 5437 5436 5440 5428 5437 5479 5466 5478 5452 5419 5410 5399 5395 5394 5408 5409 5416
5536 5535 5536 5524 5521 5525 5529 5515 5511 5491 5479 5474 5479 5476 5476 5464 5449 5436 5426 5417 5409 5393 5380 5383 5385 5438 5438 5446 5438 5438 5440 5437 5447 5457 5474 5478 5453 5415 5411 5397 5398 5395 5396 5401 5407
5524 5537 5526 5520 5517 5529 5505 5508 5496 5480 5470 5463 5464 5461 5462 5439 5414 5416 5417 5417 5405 5396 5382 5378 5373 5425 5443 5427 5420 5427 5418 5421 5421 5433 5450 5467 5453 5395 5395 5391 5391 5387 5388 5396 5395
5518 5530 5519 5517 5520 5503 5507 5486 5477 5476 5466 5459 5454 5452 5447 5440 5417 5412 5411 5406 5399 5393 5380 5380 5371 5388 5433 5437 5422 5417 5415 5410 5414 5431 5439 5440 5441 5416 5390 5391 5387 5387 5386 5389 5396
5521 5522 5513 5511 5503 5501 5485 5479 5474 5470 5465 5455 5451 5446 5440 5432 5417 5424 5424 5412 5397 5389 5377 5375 5381 5396 5441 5426 5430 5409 5415 5408 5407 5403 5431 5437 5439 5427 5413 5401 5394 5389 5387 5387 5392
5513 5512 5510 5495 5483 5497 5486 5480 5471 5462 5459 5451 5445 5440 5434 5433 5427 5414 5421 5414 5401 5387 5376 5371 5375 5374 5404 5403 5401 5394 5394 5398 5396 5422 5411 5418 5417 5425 5407 5391 5392 5387 5384 5387 5389
5504 5503 5496 5488 5484 5478 5461 5465 5471 5459 5450 5445 5440 5437 5428 5411 5408 5406 5412 5406 5399 5381 5375 5366 5369 5385 5384 5391 5394 5395 5390 5396 5391 5412 5411 5412 5408 5412 5405 5387 5383 5385 5385 5388 5390
5496 5489 5479 5476 5467 5464 5451 5457 5469 5456 5444 5441 5428 5443 5433 5411 5420 5406 5404 5402 5393 5382 5361 5354 5380 5379 5386 5402 5396 5388 5396 5401 5395 5402 5416 5418 5420 5411 5408 5406 5386 5381 5384 5386 5385
5474 5474 5481 5464 5458 5456 5472 5471 5463 5455 5447 5440 5435 5430 5423 5420 5420 5415 5405 5398 5390 5372 5369 5356 5360 5371 5402 5402 5373 5400 5396 5392 5394 5396 5401 5420 5410 5410 5410 5407 5393 5380 5380 5384 5385